NCRGNIUE

Guest
Details From NCRG - Rarotonga Intl
To NIUE - Niue
Flight Number -
Tags generated
Created
Modified
Stats Distance 585 nm / 1,083 km
Max Altitude 34,000 ft / 10,363 m
Waypoints 5
Social Downloads 0
Likes 0
Share VATSIM

Download

Looking for another format? Having issues loading an existing format? Contact us
Advertisement - Login to hide

Notes

Basic altitude profile: - Ascent Rate: 2500ft/min - Ascent Speed: 250kts - Cruise Altitude: 35000ft - Cruise Speed: 420kts - Descent Rate: 1500ft/min - Descent Speed: 250kts Options: - Use NATs: yes - Use PACOTS: yes - Use low airways: yes - Use high airways: yes

Route

NCRG RG G593 NU NIUE

ID Type Via Altitude Latitude Longitude Leg Dist Tot Dist Heading (true) Name
O NCRG APT - 0 ft / 0 m -21.20274˚ -159.80556˚ - 0 nm - Rarotonga Intl
RG VOR - 100 ft / 30 m -21.20167˚ -159.81444˚ 0 nm 0 nm 277° / 277° RAROTONGA VOR-DME
ORAGI FIX G593 (AWY-LO) 34,000 ft / 10,363 m -20.18622˚ -165.00000˚ 297 nm 298 nm 281° / 283° -
NU NDB G593 (AWY-LO) 24,500 ft / 7,468 m -19.07364˚ -169.91714˚ 286 nm 584 nm 283° / 284° NIUE NDB
O NIUE APT - 0 ft / 0 m -19.07901˚ -169.92577˚ 0 nm 584 nm 237° / 237° Niue

Altitude Profile

Advertisement - Login to hide

Weather


0- 5 10 15 20 25 30 35+ Temperature / ° C

Clouds and Precipitation
Forecast for 2018-05-23 12:00 UTC. Updated 2 hours ago

Ground ~20,000 ft ~40,000 ft Winds

NCRG

Details ICAO NCRG (RAR)
Name Rarotonga Intl
Region Cook Islands
Timezone Pacific/Rarotonga (UTC-10.0)
Stats Elevation 19 ft / 6 m (AMSL)
Location -21.202739° -159.805555°
Runways 1
Magnetic Variation 13.943° E

METAR

NCRG 231300Z 09004KT 9999 SCT015 24/23 Q1014 RMK DEW

Decode

TAF

TAF NCRG 231114Z 2312/2412 08005KT 9999 SCT018 BKKN100

Decode

Departure Runways

ID Width Length Bearing (true) Bearing (mag) Surface Threshold Offset Overrun Length
08 150 ft / 46 m 7,629 ft / 2,325 m 89.99° 76.05° Concrete 400 ft / 122 m 100 ft / 30 m
26 150 ft / 46 m 7,629 ft / 2,325 m 269.98° 256.04° Concrete 0 ft / 0 m 0 ft / 0 m

NIUE

Details ICAO NIUE (IUE)
Name Niue
Region Niue
Timezone Pacific/Niue (UTC-11.0)
Stats Elevation 209 ft / 64 m (AMSL)
Location -19.079010° -169.925766°
Runways 1
Magnetic Variation 13.095° E

METAR

NIUE 231300Z AUTO 08001KT //// ////// 23/23 Q1013.0

Decode

TAF

TAF NIUE 231120Z 2312/2412 04005KT 9999 SCT018

Decode

Destination Runways

ID Width Length Bearing (true) Bearing (mag) Surface Threshold Offset Overrun Length
10 148 ft / 45 m 7,644 ft / 2,330 m 109.90° 96.81° Asphalt 0 ft / 0 m 0 ft / 0 m
28 148 ft / 45 m 7,644 ft / 2,330 m 289.90° 276.81° Asphalt 0 ft / 0 m 0 ft / 0 m

Popular Alternatives